Location: Bruch
(44.2051°N, 0.4120°E)
Time: 04:23:58
(UTC+00:00)

USA-17 - Pass Details

Date: 29 November 2020
Orbit: 389 x 1776 km, 63.3° (Epoch: 24 January)

Event Time Altitude Azimuth Distance (km) Brightness Sun altitude
Exits shadow 05:48:57 - 227° (SW) 2,121 7.5 -14.5°
Reaches altitude 10° 05:49:47 10° 229° (SW) 1,762 7.1 -14.3°
Maximum altitude 05:53:30 56° 309° (NW) 538 4.4 -13.7°
Drops below altitude 10° 05:56:35 10° 29° (NNE) 1,467 7.1 -13.2°
Sets 05:58:31 0° 34° (NE) 2,295 8.2 -12.8°
